Location: Unspecified
(43.3830°N, 0.0000°E)
Time: 13:06:12
(UTC+00:00)

Explorer 11/Cluster Stage 4 - Pass Details

Date: 16 June 2019
Orbit: 467 x 1260 km, 28.8° (Epoch: 22 July)

Event Time Altitude Azimuth Distance (km) Brightness Sun altitude
Rises 21:17:16 0° 252° (WSW) 3,701 10.3 -13.4°
Reaches altitude 10° 21:21:19 10° 228° (SW) 2,911 9.4 -13.9°
Maximum altitude 21:24:50 14° 199° (SSW) 2,722 9.0 -14.3°
Enters shadow 21:27:22 12° 179° (S) 2,935 9.0 -14.5°
